Regional Weather Roundup
Issued by NWS Grand Forks, ND

Home | Current Version | Previous Version | Text Only | Print | Product List | Glossary Off
Versions: 1 2 3 4 5 6 7 8 9 10 11 12 13 14 15 16 17 18 19 20 21 22 23 24 25 26 27 28 29 30 31 32 33 34 35 36 37 38 39 40 41 42 43 44 45 46 47 48 49 50

000
ASUS43 KFGF 122010
RWRFGF
PRAIRIE TO PINES  WEATHER ROUNDUP
NATIONAL WEATHER SERVICE EASTERN NORTH DAKOTA/GRAND FORKS ND
200 PM CST TUE DEC 12 2017

 **SATELLITE DATA USED TO AUGMENT SKY COVER AT AUTOMATED STATIONS**
 *****  WEATHER ACROSS EASTERN NORTH DAKOTA  *****

CITY           SKY/WX    TMP DP  RH WIND       PRES   REMARKS
GRAND FORKS    PTSUNNY   34  31  88 S8        29.78F
GRAND FRKS AFB PTSUNNY   37  29  71 SW6       29.77F
GRAND FRKS NWS   N/A     32 N/A N/A S6          N/A
DEVILS LAKE    FAIR      39  28  64 SW12      29.76F
FARGO          PTSUNNY   36  29  75 SW10      29.84F
WAHPETON ARPT  FAIR      37  28  70 W13       29.87F
$$

 ***** WEATHER ACROSS CENTRAL AND WESTERN NORTH DAKOTA  *****

CITY           SKY/WX    TMP DP  RH WIND       PRES   REMARKS
BISMARCK       FAIR      50  28  42 W12       29.86F
MINOT          FAIR      50  24  36 SW21G26   29.77F
JAMESTOWN      FAIR      41  28  60 W15       29.80F
MINOT AFB      FAIR      47  25  41 W20       29.74F
GARRISON         N/A     49  25  39 W20       29.81F
WILLISTON      FAIR      45  26  47 S7        29.85F
DICKINSON      FAIR      54  24  31 W18       29.85F
HETTINGER      FAIR      58  21  24 W15       29.94F
$$

 *****  OTHER AIRPORT OBSERVATIONS IN OUR AREA  *****

CITY           SKY/WX    TMP DP  RH WIND       PRES   REMARKS
WALHALLA       FAIR      37  36  93 SW7       29.72F
GRAFTON AIRPOR MOCLDY    34  28  80 S10       29.78F
VALLEY CITY AR FAIR      36  34  93 SW13      29.82F
CANDO          FAIR      41  27  56 W17       29.74F
CAVALIER APRT  FAIR      32  28  86 SE6       29.73F
GWINNER          N/A     37  30  75 SW13G21   29.85F
SHEYENNE NWR     N/A     40  30  68 W12       29.95
ROLLA          FAIR      37  27  65 SW21      29.69F
 ***** THE ABOVE OBSERVATIONS ARE NON NWS ARE NOT QUALITY
       CONTROLLED AND MAY MIS-REPORT RAIN FOR SNOW...
$$

  *****  WEATHER ACROSS NORTHERN MINNESOTA  *****

CITY           SKY/WX    TMP DP  RH WIND       PRES   REMARKS
FLAG ISLAND    CLOUDY    12   9  85 SE6       29.83F WCI   3
WARROAD        FLURRIES  16  12  86 SE6       29.81F WCI   7
ROSEAU         CLOUDY    18  14  86 SE8       29.80F WCI   7
HALLOCK        CLOUDY    27  25  93 S14       29.77F WCI  15
THF RVR FALLS  NOT AVBL
BAUDETTE       FLURRIES  15  11  83 SE12      29.83F WCI   2
WASKISH        CLOUDY    16  12  86 SE8       29.85F WCI   5
CROOKSTON      CLOUDY    30  27  86 S13       29.82F WCI  20
$$
  *****  WEATHER ACROSS CENTRAL AND WEST MINNESOTA  *****

CITY           SKY/WX    TMP DP  RH WIND       PRES   REMARKS
FOSSTON        PTSUNNY   25  21  86 S10       29.82F WCI  15
BEMIDJI        CLOUDY    16  13  88 S8        29.84F WCI   5
PARK RAPIDS    CLOUDY    20  17  88 S8        29.85F WCI  10
ELBOW LAKE     FAIR      36  30  80 W10       29.89F HAZE
WADENA         CLOUDY    27  21  80 S6        29.87F WCI  20
DETROIT LAKES  FAIR      28  27  93 SW9       29.85F WCI  20
MOORHEAD       FAIR      34  27  75 CALM      29.85F
FERGUS FALLS   FAIR      36  28  75 SW8       29.90F
MORRIS MN      FAIR      39  28  65 SW9       29.90F
STAPLES        CLOUDY    19  16  86 S9        29.89F WCI   9
$$
  *****  WEATHER ELSEWHERE ACROSS MINNESOTA  *****

CITY           SKY/WX    TMP DP  RH WIND       PRES   REMARKS
DULUTH         CLOUDY    11   4  73 CALM      29.93F
INTRNTL FALLS  CLOUDY    11   5  77 SE6       29.89F HAZE    WCI   1
ELY            CLOUDY     7   0  72 CALM      29.92F
CLOQUET        LGT SNOW  12   5  73 SW3       29.94F
WHEATON        FAIR      43  28  56 SW10      29.91F
BRAINERD       LGT SNOW  16  11  80 S9        29.92F WCI   4
HIBBING        CLOUDY     8   3  80 SE6       29.92F WCI  -2
ALEXANDRIA     CLOUDY    28  23  81 SW12      29.90F WCI  18
SAINT CLOUD    CLOUDY    18  14  84 S7        29.98F WCI   9
MINNEAPOLIS    FLURRIES  18  11  74 S8        30.04F WCI   8
$$

  *****  WEATHER ACROSS SOUTH DAKOTA  *****

CITY           SKY/WX    TMP DP  RH WIND       PRES   REMARKS
SIOUX FALLS    PTSUNNY   40  31  70 SW10      30.02F
BROOKINGS      CLOUDY    38  28  67 SW13      29.98F
WATERTOWN      CLOUDY    37  30  75 SW16      29.94F
HURON          FAIR      46  28  49 W15       29.97F
SISSETON         N/A     41  30  65 W24       29.86F
ABERDEEN       FAIR      47  28  47 SW15      29.91F
MITCHELL       FAIR      45  30  55 SW10      30.01F
PIERRE         FAIR      50  27  40 W13       29.95F
MOBRIDGE       FAIR      51  27  39 W5        29.88F
RAPID CITY     FAIR      59  17  19 S5        30.02F
$$

  *****  SOME WEATHER IN NEARBY STATES *****

CITY           SKY/WX    TMP DP  RH WIND       PRES   REMARKS
GLASGOW MT     FAIR      46  21  37 W10       29.90F
GREAT FALLS MT FAIR      52   1  12 SW25G35   30.14F
CHEYENNE WY    FAIR      60  14  16 W18G28    30.24F
SCOTTSBLUFF NE FAIR      64  16  15 W16       30.14F
OMAHA NE       PTSUNNY   38  23  55 S10       30.14F
DES MOINES IA  FAIR      32  10  40 W9        30.14F WCI  24
DAVENPORT IA   FAIR      27   4  37 NW15G23   30.13F WCI  15
CHICAGO IL     FAIR      22   8  55 NW16      30.03F WCI   8
EAU CLAIRE WI  CLOUDY    13   1  59 W8        30.04F WCI   2
LA CROSSE WI   CLOUDY    20   2  45 NW6       30.09F WCI  12
$$

  *****  SOME NATIONAL WEATHER *****

CITY           SKY/WX    TMP DP  RH WIND       PRES   REMARKS
LA GUARDIA NY  CLOUDY    45  35  68 NW9       29.43S
RALEIGH NC     PTSUNNY   50  28  42 W14G20    29.62S
ATLANTA GA     FAIR      48  32  53 NW15G29   29.92F
NEW ORLEANS LA FAIR      61  35  37 NW15      30.12F
OKLAHOMA CITY  FAIR      46  27  47 NW7       30.33F
ALBUQUERQUE NM FAIR      50   3  14 S3        30.41F
SALT LAKE CITY LGT SNOW  24  23  96 CALM      30.54F FOG
LOS ANGELES CA FAIR      82   2   4 CALM      30.12F
BOISE ID       CLOUDY    24  21  88 N8        30.64F FOG     WCI  15
SEATTLE WA     PTSUNNY   43  31  62 S3        30.47F
$$

*** WEATHER ACROSS MANITOBA...SASKATCHEWAN AND ONTARIO ***
                ***ONTARIO***

CITY           SKY/WX    TMP DP  RH WIND       PRES   REMARKS
GERALDTON      FLURRIES  -4 -11  71 NW5       29.93F WCI -15
THUNDER BAY    MOSUNNY    5  -6  61 NW6       29.99F WCI  -6
SIOUX LOOKOUT  CLOUDY     0  -6  78 S5        29.91F WCI -10
TORONTO        FLURRIES  19  10  68 W22G28    29.59R WCI   3
BIG TROUT LK   CLEAR     -8 -13  77 S2        29.92S
PICKLE LAKE    MOSUNNY   -4 -11  71 SW3       29.89F
DRYDEN         CLOUDY     3   0  85 SE5       29.87F WCI  -6
KENORA         FLURRIES   9   7  92 S9        29.81F WCI  -5
$$
                *** MANITOBA***

CITY           SKY/WX    TMP DP  RH WIND       PRES   REMARKS
BRANDON        PTSUNNY   36  28  75 W12       29.66F
DAUPHIN        SUNNY     39  28  65 W12       29.58F
ISLAND LAKE    CLOUDY     1  -2  85 SE9       29.82F WCI -14
PILOT MOUND      N/A     37  28  70 SW8         N/A
THE PAS        CLOUDY    19  18  93 SE6       29.57F FOG     WCI  11
THOMPSON       FLURRIES   5   0  78 E5        29.68F WCI  -4
WINNIPEG       CLOUDY    21  19  93 SE13      29.73F WCI   9
LYNN LAKE      FLURRIES  10   9  92 SE6       29.55S WCI   1
CHURCHILL      PTCLDY   -15 -20  76 S3        29.90F
GILLAM         MOCLDY    -6 -11  77 SE2       29.84F
$$
                ***SASKATCHEWAN***

CITY           SKY/WX    TMP DP  RH WIND       PRES   REMARKS
ESTEVAN        PTSUNNY   45  28  53 SW13      29.75F
KINDERSLEY     PTSUNNY   39  30  70 NW16G23   29.84R
LLOYDMINSTER   CLOUDY    41  30  65 NW16G23   29.82S
PRINCE ALBERT  PTSUNNY   39  28  65 NW12G17   29.65S
REGINA         PTSUNNY   41  30  65 SW8       29.69F
YORKTON        PTSUNNY   39  28  65 NW6       29.61F
N. BATTLEFORD  MOSUNNY   39  30  70 W9        29.78S
LA RONGE       PTSUNNY   30  28  93 W8        29.62S WCI  23
SASKATOON      CLOUDY    37  28  70 W10G17    29.72F
SWIFT CURRENT  SUNNY     48  16  27 W18G28    29.80S
$$
NOTE: THESE ARE AUTOMATED STATIONS WITH LIMITED QUALITY CONTROL
      "FAIR" INDICATES FEW OR NO CLOUDS BELOW 12,000 FEET WITH NO
      SIGNIFICANT WEATHER AND/OR OBSTRUCTIONS TO VISIBILITY.
      SKY/WX - SKY CONDITION AND SIGNIFICANT WEATHER.
      TMP - AIR TEMPERATURE.    DP   - DEWPOINT TEMPERATURE.
      RH  - RELATIVE HUMIDITY.  PRES - PRESSURE.
      HX  - HEAT INDEX.         WCI  - WIND CHILL INDEX.
$




USA.gov is the U.S. government's official web portal to all federal, state and local government web resources and services.